Weather in Mogi das Cruzes

Brazil     23°31′52″S   46°12′04″W
temp.,
°C
wind,
m/s
gust,
m/s
humid.,
%
clouds,
%
prec.,
mm/h
press.,
hPa
HPBL,
m
10 april, sat
sat1000:00+16nne22940 0.0 102037
03:00+14ne11961 0.0 101930
06:00+13nne22977 0.0 101940
09:00+20nne12690 0.0 1020298
12:00+26nnw12430 0.0 10171423
15:00+27n12400 0.0 10141814
18:00+19se11780 0.0 101518
21:00+17ne11891 0.0 101721
11 april, sun
sun1100:00+16nne11883 0.0 101618
03:00+14nne119315 0.0 101627
06:00+14nne11941 0.0 101721
09:00+21n13643 0.0 1018318
12:00+27wnw24375 0.0 10151661
15:00+28wnw34350 0.0 10122118
18:00+21wnw22650 0.0 101448
21:00+18nw11724 0.0 101616
12 april, mon
mon1200:00+16nne11780 0.0 101616
03:00+15nne11830 0.0 101521
06:00+14nne11860 0.0 101614
09:00+22nnw23580 0.0 1017273
12:00+27ssw33430 0.0 10161652
15:00+24s557132 0.1 1016942
18:00+19sse3791100 0.2 1018602
21:00+19se1594100 0.4 1019392
13 april, tue
tue1300:00+18se1398100 0.6 1019335
03:00+18se2498100 0.9 1019420
06:00+18se2598100 0.4 1019344
09:00+18sse2598100 0.6 1022351
12:00+20se238269 0.1 1021685
15:00+20sse448087 0.4 1019622
18:00+17sse369289 0.0 1020413
21:00+17ese259494 0.1 1021357
14 april, wed
wed1400:00+16ese1495100 0.1 1020282
03:00+16se1396100 0.1 1019175
06:00+16ese249489 0.0 1019252
09:00+19ese247666 0.0 1021647
12:00+22ese2366100 0.1 10191170
15:00+21se2373100 0.1 1017723
18:00+18se358898 0.0 1019319
21:00+17ese1495100 0.1 1020228